EN

Hourly Weather 3 internacional

Today, 12 June, Saturday

Time Temperature Precipitation Wind Pressure Humidity
00:00 +28°C° 0 mm 4 mps 747 mmHg 20%
01:00 +28°C° 0 mm 4 mps 747 mmHg 20%
02:00 +27°C° 0 mm 4 mps 747 mmHg 21%
03:00 +26°C° 0 mm 4 mps 747 mmHg 23%
04:00 +25°C° 0 mm 4 mps 748 mmHg 25%
05:00 +27°C° 0 mm 4 mps 748 mmHg 24%
06:00 +28°C° 0 mm 5 mps 748 mmHg 24%
07:00 +30°C° 0 mm 6 mps 748 mmHg 23%
08:00 +32°C° 0 mm 6 mps 749 mmHg 21%
09:00 +34°C° 0 mm 6 mps 749 mmHg 18%
10:00 +36°C° 0 mm 6 mps 749 mmHg 15%
11:00 +36°C° 0 mm 6 mps 749 mmHg 15%
12:00 +37°C° 0 mm 5 mps 749 mmHg 15%
13:00 +37°C° 0 mm 5 mps 749 mmHg 14%
14:00 +37°C° 0 mm 5 mps 748 mmHg 14%
15:00 +37°C° 0 mm 4 mps 748 mmHg 14%
16:00 +37°C° 0 mm 4 mps 748 mmHg 14%
17:00 +36°C° 0 mm 4 mps 748 mmHg 15%
18:00 +35°C° 0 mm 3 mps 748 mmHg 16%
19:00 +35°C° 0 mm 3 mps 748 mmHg 17%
20:00 +33°C° 0 mm 5 mps 749 mmHg 18%
21:00 +32°C° 0 mm 7 mps 749 mmHg 19%
22:00 +31°C° 0 mm 8 mps 750 mmHg 20%
23:00 +29°C° 0 mm 8 mps 750 mmHg 19%

Tomorrow, 13 June, Sunday

Time Temperature Precipitation Wind Pressure Humidity
00:00 +28°C° 0 mm 8 mps 750 mmHg 17%
01:00 +27°C° 0 mm 8 mps 750 mmHg 15%
02:00 +26°C° 0 mm 7 mps 750 mmHg 17%
03:00 +24°C° 0 mm 7 mps 751 mmHg 19%
04:00 +23°C° 0 mm 6 mps 751 mmHg 21%
05:00 +24°C° 0 mm 6 mps 751 mmHg 21%
06:00 +26°C° 0 mm 6 mps 751 mmHg 20%
07:00 +27°C° 0 mm 6 mps 752 mmHg 20%
08:00 +28°C° 0 mm 6 mps 752 mmHg 18%
09:00 +30°C° 0 mm 6 mps 752 mmHg 16%
10:00 +33°C° 0 mm 5 mps 752 mmHg 14%
11:00 +34°C° 0 mm 5 mps 751 mmHg 13%
12:00 +35°C° 0 mm 5 mps 751 mmHg 12%
13:00 +36°C° 0 mm 5 mps 751 mmHg 11%
14:00 +36°C° 0 mm 5 mps 751 mmHg 11%
15:00 +36°C° 0 mm 6 mps 751 mmHg 11%
16:00 +36°C° 0 mm 6 mps 751 mmHg 10%
17:00 +35°C° 0 mm 6 mps 751 mmHg 11%
18:00 +34°C° 0 mm 6 mps 751 mmHg 12%
19:00 +33°C° 0 mm 5 mps 751 mmHg 12%
20:00 +30°C° 0 mm 6 mps 751 mmHg 13%
21:00 +29°C° 0 mm 6 mps 752 mmHg 14%
22:00 +28°C° 0 mm 6 mps 752 mmHg 15%
23:00 +27°C° 0 mm 7 mps 752 mmHg 16%

Day after tomorrow, 14 June, Monday

Time Temperature Precipitation Wind Pressure Humidity
00:00 +26°C° 0 mm 7 mps 752 mmHg 16%
01:00 +26°C° 0 mm 7 mps 752 mmHg 16%
02:00 +24°C° 0 mm 7 mps 752 mmHg 18%
03:00 +23°C° 0 mm 6 mps 752 mmHg 20%
04:00 +22°C° 0 mm 6 mps 752 mmHg 21%
05:00 +23°C° 0 mm 6 mps 752 mmHg 21%
06:00 +24°C° 0 mm 7 mps 753 mmHg 20%
07:00 +26°C° 0 mm 7 mps 753 mmHg 19%
08:00 +28°C° 0 mm 8 mps 753 mmHg 17%
09:00 +29°C° 0 mm 8 mps 753 mmHg 16%
10:00 +31°C° 0 mm 8 mps 753 mmHg 14%
11:00 +32°C° 0 mm 8 mps 753 mmHg 13%
12:00 +33°C° 0 mm 8 mps 753 mmHg 13%
13:00 +34°C° 0 mm 8 mps 752 mmHg 12%
14:00 +34°C° 0 mm 8 mps 752 mmHg 12%
15:00 +34°C° 0 mm 7 mps 752 mmHg 12%
16:00 +34°C° 0 mm 7 mps 752 mmHg 12%
17:00 +33°C° 0 mm 6 mps 752 mmHg 13%
18:00 +32°C° 0 mm 5 mps 752 mmHg 14%
19:00 +30°C° 0 mm 4 mps 752 mmHg 15%
20:00 +29°C° 0 mm 4 mps 752 mmHg 15%
21:00 +28°C° 0 mm 4 mps 752 mmHg 16%
22:00 +27°C° 0 mm 4 mps 752 mmHg 17%
23:00 +26°C° 0 mm 4 mps 752 mmHg 19%

15 June, Tuesday

Time Temperature Precipitation Wind Pressure Humidity
00:00 +25°C° 0 mm 4 mps 751 mmHg 21%
01:00 +25°C° 0 mm 4 mps 751 mmHg 23%
02:00 +23°C° 0 mm 4 mps 752 mmHg 25%
03:00 +22°C° 0 mm 4 mps 752 mmHg 27%
04:00 +22°C° 0 mm 4 mps 752 mmHg 30%
05:00 +23°C° 0 mm 4 mps 752 mmHg 28%
06:00 +26°C° 0 mm 4 mps 753 mmHg 26%
07:00 +28°C° 0 mm 4 mps 753 mmHg 23%
08:00 +29°C° 0 mm 5 mps 753 mmHg 23%
09:00 +30°C° 0 mm 6 mps 752 mmHg 22%
10:00 +33°C° 0 mm 6 mps 752 mmHg 22%
11:00 +33°C° 0 mm 6 mps 752 mmHg 21%
12:00 +34°C° 0 mm 6 mps 751 mmHg 20%
13:00 +35°C° 0 mm 6 mps 751 mmHg 19%
14:00 +35°C° 0 mm 6 mps 750 mmHg 18%
15:00 +35°C° 0 mm 6 mps 750 mmHg 17%
16:00 +36°C° 0 mm 6 mps 750 mmHg 17%
17:00 +35°C° 0 mm 5 mps 750 mmHg 18%
18:00 +34°C° 0 mm 4 mps 749 mmHg 19%
19:00 +33°C° 0 mm 3 mps 749 mmHg 20%
20:00 +31°C° 0 mm 3 mps 749 mmHg 21%
21:00 +30°C° 0 mm 4 mps 749 mmHg 21%
22:00 +29°C° 0 mm 4 mps 749 mmHg 22%
23:00 +28°C° 0 mm 4 mps 749 mmHg 23%

16 June, Wednesday

Time Temperature Precipitation Wind Pressure Humidity
00:00 +28°C° 0 mm 4 mps 749 mmHg 23%
01:00 +27°C° 0 mm 4 mps 749 mmHg 24%
02:00 +26°C° 0 mm 4 mps 749 mmHg 25%
03:00 +26°C° 0 mm 4 mps 749 mmHg 27%
04:00 +25°C° 0 mm 4 mps 749 mmHg 28%
05:00 +27°C° 0 mm 4 mps 749 mmHg 26%
06:00 +28°C° 0 mm 4 mps 750 mmHg 24%
07:00 +30°C° 0 mm 5 mps 750 mmHg 21%
08:00 +33°C° 0 mm 5 mps 750 mmHg 19%
09:00 +34°C° 0 mm 5 mps 750 mmHg 17%
10:00 +36°C° 0 mm 5 mps 750 mmHg 15%
11:00 +36°C° 0 mm 5 mps 749 mmHg 14%
12:00 +37°C° 0 mm 5 mps 749 mmHg 13%
13:00 +38°C° 0 mm 4 mps 749 mmHg 13%
14:00 +38°C° 0 mm 4 mps 749 mmHg 13%
15:00 +38°C° 0 mm 4 mps 749 mmHg 12%
16:00 +38°C° 0 mm 4 mps 748 mmHg 12%
17:00 +37°C° 0 mm 4 mps 748 mmHg 13%
18:00 +36°C° 0 mm 3 mps 749 mmHg 14%
19:00 +35°C° 0 mm 3 mps 749 mmHg 15%
20:00 +34°C° 0 mm 2 mps 749 mmHg 16%
21:00 +31°C° 0 mm 2 mps 749 mmHg 17%
22:00 +30°C° 0 mm 2 mps 749 mmHg 19%
23:00 +30°C° 0 mm 2 mps 749 mmHg 19%

17 June, Thursday

Time Temperature Precipitation Wind Pressure Humidity
00:00 +29°C° 0 mm 3 mps 749 mmHg 19%
01:00 +29°C° 0 mm 3 mps 749 mmHg 19%
02:00 +28°C° 0 mm 3 mps 749 mmHg 21%
03:00 +27°C° 0 mm 4 mps 749 mmHg 23%
04:00 +26°C° 0 mm 4 mps 749 mmHg 24%
05:00 +28°C° 0 mm 4 mps 749 mmHg 23%
06:00 +30°C° 0 mm 4 mps 750 mmHg 21%
07:00 +33°C° 0 mm 4 mps 750 mmHg 19%
08:00 +34°C° 0 mm 4 mps 750 mmHg 17%
09:00 +36°C° 0 mm 5 mps 750 mmHg 15%
10:00 +37°C° 0 mm 5 mps 750 mmHg 14%
11:00 +39°C° 0 mm 5 mps 749 mmHg 13%
12:00 +38°C° 0 mm 4 mps 749 mmHg 13%
13:00 +40°C° 0 mm 4 mps 749 mmHg 12%
14:00 +40°C° 0 mm 4 mps 748 mmHg 12%
15:00 +40°C° 0 mm 4 mps 748 mmHg 12%
16:00 +40°C° 0 mm 4 mps 748 mmHg 12%
17:00 +38°C° 0 mm 4 mps 748 mmHg 13%
18:00 +37°C° 0 mm 3 mps 748 mmHg 14%
19:00 +36°C° 0 mm 3 mps 748 mmHg 15%
20:00 +35°C° 0 mm 3 mps 748 mmHg 15%
21:00 +34°C° 0 mm 2 mps 748 mmHg 16%
22:00 +31°C° 0 mm 2 mps 748 mmHg 17%
23:00 +31°C° 0 mm 2 mps 747 mmHg 17%
Show more